Location: Pedholt
(56.0260°N, 10.2097°E)
Time: 21:20:26
(UTC+00:00)

Tiros 1 - Pass Details

Date: 04 August 2021
Orbit: 630 x 663 km, 48.4° (Epoch: 19 September)

Event Time Altitude Azimuth Distance (km) Brightness Sun altitude
Rises 21:03:18 0° 269° (W) 2,976 11.1 -11.1°
Reaches altitude 10° 21:06:10 10° 252° (WSW) 2,056 9.9 -11.3°
Maximum altitude 21:09:34 20° 206° (SSW) 1,502 8.7 -11.6°
Enters shadow 21:11:49 14° 172° (S) 1,759 8.8 -11.8°
Drops below altitude 10° 21:12:56 10° 160° (SSE) 2,035 - -11.9°
Sets 21:15:46 0° 144° (SE) 2,935 - -12.1°
